Theta_e
352 354 354 354 355 355 354 355 354 354 354 354 353 353 353 354 353 354 359 358 360 360 361 363 364 363 362 363 362 364 366 365 366 367 368 367 367 367 366 368 366 365 366 366 364 366 367 365 365 366 368 364 363 361 360 363 365 363 365 364 360 362 359 358 353 353 360 363 359 359 362 364 362 369 366 364 366 369 366 371 374 369 369 372 372
352 354 354 354 354 354 354 354 354 354 353 353 353 352 353 353 354 355 354 357 359 358 361 361 363 362 361 363 364 364 366 367 365 365 366 366 366 363 364 367 367 365 366 365 366 365 366 365 364 364 368 365 362 360 359 358 359 358 361 360 359 360 364 358 356 355 354 362 363 366 363 366 360 370 367 364 365 368 367 370 368 367 369 372 372
351 354 354 354 355 354 354 354 354 354 352 352 351 351 351 352 354 353 351 352 357 357 358 358 362 363 361 362 365 364 366 365 364 364 365 365 365 363 362 364 364 363 363 364 363 365 364 364 362 363 364 362 362 360 359 360 360 360 360 361 361 360 364 363 359 356 355 356 364 360 362 365 363 364 367 367 369 369 369 367 364 364 368 370 370
351 353 353 353 354 354 354 354 353 352 351 351 351 351 351 351 353 351 351 350 352 356 357 358 361 363 360 362 363 363 364 363 363 364 364 365 364 365 365 365 364 363 362 362 362 364 362 363 362 362 363 362 362 362 362 362 362 363 362 364 365 362 364 366 364 359 358 355 360 361 362 362 363 367 368 368 366 367 367 368 369 366 365 366 368
350 351 351 351 352 353 353 353 352 352 351 351 351 351 351 351 352 351 350 350 351 353 356 358 360 361 357 359 361 362 362 363 363 361 362 364 364 363 364 365 365 364 364 364 363 364 364 362 361 364 365 362 362 361 360 362 362 361 361 363 363 363 364 364 365 364 360 358 358 364 367 365 366 367 368 363 364 367 371 370 365 367 368 364 365
350 350 351 350 351 351 352 352 351 352 351 351 351 351 351 351 351 351 351 350 351 351 353 354 356 358 358 358 360 361 363 363 363 362 361 362 363 363 363 364 363 364 364 363 364 365 363 364 364 364 364 362 360 361 364 363 363 361 361 362 363 364 365 365 366 365 363 361 361 359 365 362 363 366 368 366 362 361 363 367 370 368 368 364 363
350 349 350 349 351 351 351 352 352 352 352 352 351 352 351 351 350 350 351 350 350 350 350 353 355 356 358 358 358 360 362 361 363 364 363 363 364 363 361 362 362 363 364 362 362 363 363 363 364 365 364 364 362 361 364 364 362 362 363 364 364 363 362 362 364 363 362 360 360 361 360 363 363 359 366 368 366 364 361 360 361 368 369 367 364
349 350 350 350 351 351 351 352 353 353 353 355 353 352 351 351 351 351 351 350 349 349 349 350 354 355 356 357 358 360 362 361 363 364 363 362 362 362 362 361 360 361 362 362 361 360 361 362 360 362 364 366 365 364 365 363 365 363 363 364 364 363 361 360 362 360 359 358 357 355 357 360 362 363 366 366 363 364 366 360 357 359 363 367 368
349 349 350 350 352 353 353 353 354 354 355 356 354 353 352 352 352 352 352 350 349 349 349 349 351 353 354 356 357 358 357 357 359 361 361 362 362 360 361 361 360 360 361 360 361 361 361 361 361 360 364 365 364 363 363 364 363 362 365 365 364 363 362 361 360 359 359 357 356 359 358 358 359 360 358 359 359 357 363 363 360 363 364 362 365
349 348 348 350 353 354 355 355 355 355 355 356 356 355 352 352 351 351 351 351 351 351 351 350 349 351 352 355 356 355 355 356 353 341 346 360 361 358 360 362 361 360 361 360 358 360 360 359 359 363 362 361 358 354 350 352 354 358 362 367 365 363 361 361 360 359 358 356 355 355 354 353 353 358 357 358 362 364 362 364 360 362 364 362 365
347 348 348 350 353 354 356 356 356 355 356 357 356 355 353 352 352 352 352 352 352 353 351 349 348 348 349 351 352 352 353 352 339 333 333 338 356 361 360 361 362 361 359 360 359 358 359 361 362 362 363 360 360 351 349 347 347 348 351 356 362 365 362 360 359 359 357 356 356 356 354 355 356 358 356 356 360 360 360 362 360 360 358 355 352
347 349 349 351 354 354 354 355 356 356 356 356 356 356 354 353 352 352 351 351 353 352 350 349 350 348 347 348 348 350 352 342 331 330 331 330 338 357 357 357 356 358 358 356 358 358 358 358 360 360 362 363 363 365 358 349 344 344 344 346 349 352 354 361 361 360 360 358 356 356 356 356 358 361 357 356 361 364 365 362 362 360 358 357 357
348 350 350 351 355 355 355 355 356 355 356 356 357 356 355 353 352 351 349 350 351 351 351 350 350 350 348 348 347 347 349 336 329 327 328 328 328 341 353 355 353 354 356 358 357 359 360 359 358 360 359 360 361 362 366 368 350 342 343 344 346 345 340 340 346 361 362 362 360 358 359 360 360 361 362 364 367 362 362 360 362 361 360 358 358
354 351 353 354 356 356 357 356 355 356 357 357 357 356 355 354 352 351 350 351 351 350 349 350 351 352 351 350 350 349 349 336 326 325 325 325 327 332 351 351 353 353 355 356 356 357 360 360 359 359 361 363 363 362 363 365 366 366 362 360 361 358 347 339 338 340 349 359 361 360 364 366 362 364 367 369 364 361 361 359 362 360 360 359 363
357 356 355 356 356 356 357 356 356 357 358 357 357 356 355 354 353 352 351 350 350 350 348 348 349 351 350 350 350 349 348 332 324 322 321 322 324 329 349 351 352 354 356 357 358 357 359 360 360 358 360 362 363 362 362 363 365 364 364 363 363 364 365 362 359 358 357 357 360 362 365 366 368 368 369 370 368 366 365 364 363 363 364 366 363
349 352 354 356 357 356 354 353 355 357 354 357 356 356 355 356 355 354 353 351 351 351 351 350 349 349 349 348 347 347 348 329 323 321 319 320 323 339 348 352 352 352 355 357 357 359 359 359 360 359 359 360 357 345 352 362 362 362 361 362 362 362 362 360 348 351 362 363 363 361 361 362 352 366 368 365 368 369 367 366 364 362 359 356 354
347 349 350 351 354 354 355 353 353 353 354 353 353 354 356 356 356 357 354 352 351 350 351 349 351 349 348 348 347 347 347 335 321 318 318 318 323 343 348 350 352 352 353 355 357 358 359 359 360 358 358 360 351 335 336 349 359 359 359 359 359 358 358 362 345 337 337 335 335 337 336 336 334 332 331 333 357 361 363 357 356 359 356 352 353
344 345 347 350 352 354 354 353 352 352 353 353 353 355 356 356 357 357 354 353 351 352 352 351 351 351 349 348 347 347 347 338 319 316 315 316 326 345 349 350 351 352 352 355 356 357 358 355 360 359 358 359 341 332 331 346 357 357 358 357 357 357 359 359 359 357 333 330 331 332 333 333 333 332 332 331 331 347 360 354 359 359 354 355 351
338 341 344 347 350 352 353 354 354 353 353 352 351 352 354 355 358 359 357 355 354 355 354 353 352 352 351 350 344 345 348 340 320 316 314 314 326 346 349 349 349 350 350 351 355 355 356 355 355 352 354 351 335 330 327 342 357 358 358 358 355 356 357 360 359 359 361 357 357 353 350 342 346 351 354 338 334 345 358 360 361 358 354 355 356
335 337 341 346 350 352 351 352 354 354 354 355 354 352 353 356 354 352 352 355 354 357 354 354 353 353 353 352 351 349 348 350 346 315 314 312 316 344 350 348 347 348 350 349 350 354 354 356 351 333 330 331 329 325 323 326 354 359 358 356 356 355 359 360 362 361 362 361 362 363 363 366 367 363 362 361 349 350 355 359 360 360 359 358 357
335 336 338 342 348 350 351 351 351 353 354 355 353 353 352 354 353 352 353 355 354 354 354 355 354 354 354 356 354 353 352 351 351 317 313 311 312 322 347 348 348 348 350 350 349 349 352 353 354 339 325 324 323 321 319 318 332 358 360 358 358 359 356 360 360 362 361 362 362 361 362 365 366 366 365 365 359 355 353 356 359 360 361 358 357
333 335 336 338 345 350 350 351 351 350 351 353 352 352 355 356 353 352 356 355 353 351 357 357 356 356 357 357 357 356 353 342 354 327 314 311 311 312 339 346 347 349 349 350 349 349 350 352 356 344 325 322 320 319 317 317 319 351 359 336 335 335 358 360 360 360 361 361 359 358 359 359 360 361 362 361 359 358 358 359 359 360 361 361 360
332 334 336 340 344 350 352 350 350 351 352 353 352 353 354 354 354 354 353 353 351 351 353 355 358 358 358 359 359 359 360 357 333 349 319 311 310 309 318 334 330 350 347 348 349 349 352 354 355 343 326 318 316 316 316 316 320 337 328 327 328 330 343 356 358 358 358 358 358 358 358 359 359 359 361 361 362 363 361 362 363 362 363 363 365
332 333 334 336 339 343 346 350 350 352 352 353 352 351 353 352 352 351 351 353 351 351 351 352 356 355 355 356 359 360 362 362 342 328 338 313 311 309 311 316 324 343 348 348 350 351 352 354 352 331 321 315 313 315 316 318 333 322 319 322 326 333 349 354 354 357 356 355 354 354 356 358 359 359 360 363 362 367 365 364 365 365 365 364 366
330 331 333 333 335 337 341 343 346 351 352 353 351 351 349 350 349 351 352 353 353 353 352 355 356 357 356 356 358 359 360 362 363 344 325 322 312 310 310 312 315 319 343 348 351 352 338 329 327 323 321 316 314 315 316 316 316 320 319 321 331 345 349 352 354 356 354 353 354 356 357 358 360 362 366 368 369 368 369 365 364 365 365 365 363
330 331 331 332 332 333 333 336 340 344 348 353 353 352 350 350 349 348 350 352 354 353 352 355 356 358 357 357 357 359 361 362 362 363 338 330 322 313 312 312 315 316 326 342 334 331 328 324 322 322 321 325 336 341 344 344 323 319 321 327 342 346 350 352 354 354 354 354 354 354 356 359 360 364 367 368 366 364 364 362 361 359 359 356 355
328 329 329 330 332 332 332 334 336 340 343 349 353 354 354 352 350 349 349 350 352 353 354 355 356 356 355 356 358 359 360 359 360 362 362 354 348 339 324 323 315 316 325 336 334 342 342 337 341 332 333 331 332 333 336 339 342 337 336 339 343 348 350 353 354 355 356 355 355 356 357 360 364 365 365 364 362 364 365 359 359 358 357 356 353
327 327 328 329 330 332 333 334 336 338 342 345 347 352 355 355 353 352 351 352 351 352 353 353 354 355 356 358 359 359 359 360 360 361 361 360 357 353 345 338 336 333 333 337 342 345 347 338 337 347 349 349 347 346 348 351 350 348 348 347 347 350 349 349 352 358 359 359 359 359 359 361 360 361 362 362 362 362 361 359 356 355 355 355 351
326 327 328 329 330 332 334 335 337 338 340 344 346 351 351 353 353 353 356 357 356 355 354 354 356 358 359 359 359 358 359 359 361 341 362 338 353 357 353 347 344 342 332 326 344 347 348 347 348 347 348 347 348 350 350 351 351 352 353 353 353 353 353 352 352 354 356 357 357 358 358 361 360 361 359 357 357 358 362 358 359 357 357 355 351
324 324 326 328 331 332 333 335 335 336 336 338 341 344 342 327 336 349 351 341 331 328 328 350 356 359 359 361 364 360 360 362 340 328 322 320 319 323 327 326 325 337 329 319 336 344 345 345 347 348 349 349 349 348 349 351 352 352 353 343 351 353 353 353 354 354 358 356 358 358 358 359 360 359 357 355 356 357 356 347 356 358 355 351 350
322 324 326 327 328 330 331 333 334 335 337 338 340 341 343 345 315 313 323 330 326 315 310 314 318 324 346 355 353 334 331 328 329 321 314 314 314 313 314 314 313 315 316 330 335 340 344 345 345 347 348 349 349 349 350 351 351 351 352 353 354 353 350 353 355 354 354 355 356 358 357 357 356 355 353 353 354 355 356 353 353 355 353 352 349
320 322 324 325 326 328 330 332 334 334 335 338 339 341 342 342 345 324 312 313 315 311 310 309 309 309 311 322 339 356 334 317 317 315 309 311 312 311 310 310 310 309 310 318 340 340 343 346 347 348 349 348 349 350 351 351 353 354 354 353 354 354 355 354 358 358 356 356 356 354 356 353 353 352 353 352 353 355 355 349 349 351 351 351 350
320 321 323 324 325 326 327 329 330 331 332 334 336 337 338 339 338 341 342 315 309 309 311 309 308 308 308 307 307 315 324 327 313 310 309 307 307 308 308 307 308 305 307 330 343 345 345 347 348 350 350 349 351 351 352 353 354 355 356 355 355 356 358 359 352 356 355 355 355 355 353 352 351 351 349 352 354 352 350 347 348 347 345 345 345
319 320 321 323 324 325 326 327 328 329 330 332 333 334 335 337 338 340 340 342 344 328 311 306 305 306 305 304 307 308 308 308 309 307 307 308 306 305 305 318 304 301 317 343 344 346 348 349 348 350 351 351 351 351 352 354 355 357 357 356 357 359 362 363 360 355 353 353 352 350 351 352 352 351 351 353 353 351 349 346 346 344 342 342 343
319 321 325 326 324 325 325 325 326 326 327 328 329 330 330 332 335 336 338 339 340 342 346 352 325 304 318 316 308 305 305 306 307 307 305 303 305 302 306 333 333 329 327 338 347 349 349 349 350 350 352 352 352 353 353 356 356 355 356 357 357 358 360 360 357 356 353 352 351 351 353 351 353 350 349 348 348 346 346 345 344 343 343 343 343
318 319 320 321 322 323 323 323 324 325 325 325 327 328 329 329 328 330 330 333 335 338 341 347 354 336 310 306 309 308 305 303 305 305 305 302 301 306 336 342 343 342 338 338 342 347 349 351 351 352 353 353 356 356 356 355 356 356 357 356 354 357 358 358 356 355 353 353 351 353 347 351 350 348 349 349 348 347 348 346 343 342 343 343 343
317 318 319 320 321 322 321 322 322 323 323 323 324 325 327 328 329 330 332 333 334 336 339 344 348 352 336 330 319 307 304 303 302 302 304 302 300 322 345 348 348 348 343 343 343 347 348 350 352 353 354 354 355 356 356 356 357 358 348 357 358 358 358 359 359 354 353 352 353 352 352 350 349 349 347 346 345 346 346 346 344 339 338 338 335
317 317 318 319 319 319 319 319 320 321 322 323 324 326 327 329 329 330 331 332 333 334 337 339 336 343 346 352 341 336 326 303 301 302 301 300 309 330 342 348 351 351 349 348 347 348 349 352 354 354 355 356 356 356 356 357 357 357 358 359 359 358 347 355 352 356 353 352 352 351 348 348 348 347 344 345 344 343 342 342 343 343 340 336 338
318 317 317 317 317 317 318 319 320 321 322 323 324 325 325 326 327 329 332 333 334 335 336 338 340 341 345 351 347 333 326 331 333 336 332 330 330 335 341 346 350 351 352 353 351 349 351 351 352 355 355 357 357 358 357 356 357 357 358 358 358 358 356 354 353 355 352 350 350 350 349 347 347 347 346 345 344 343 342 341 341 341 340 336 335
317 318 317 316 317 317 318 319 319 320 321 322 323 324 325 325 326 327 330 332 334 336 337 337 337 339 344 348 344 338 340 343 343 345 345 341 338 339 342 345 349 351 353 356 355 353 351 352 354 355 356 358 359 358 358 358 358 358 359 357 357 358 356 354 353 353 352 350 349 350 346 345 346 347 347 345 344 343 343 341 338 337 339 337 335
317 317 318 316 315 316 317 318 318 319 320 321 321 321 321 322 324 325 326 327 330 333 334 336 338 340 341 332 322 323 343 346 348 347 348 347 345 344 344 346 348 351 354 355 358 356 354 353 354 356 357 358 359 359 358 357 356 357 357 356 357 355 355 353 353 353 352 347 346 345 345 345 345 345 342 342 335 338 340 337 336 334 335 336 336
316 315 315 315 316 317 317 317 317 318 318 318 318 319 320 321 322 324 325 327 329 332 334 336 339 341 331 316 312 309 333 345 347 348 350 350 350 348 347 348 349 352 354 356 358 359 357 356 354 355 358 356 356 356 355 355 355 354 356 355 352 351 351 351 353 354 350 346 344 344 344 344 342 341 342 332 339 338 337 336 335 335 336 336 334
316 316 315 316 316 315 315 315 315 315 315 315 316 318 319 320 321 322 323 325 327 331 335 337 340 345 340 311 310 305 330 344 345 346 346 340 340 339 341 342 341 339 339 340 340 343 349 353 353 355 355 355 357 357 357 356 355 354 353 353 352 350 349 349 350 348 347 343 343 341 340 339 338 340 340 336 336 335 335 334 333 333 334 335 334
315 315 315 314 315 315 315 314 313 314 313 315 316 316 317 317 318 319 320 322 324 325 328 329 325 320 315 312 310 311 312 310 311 311 311 311 310 310 310 310 310 311 313 314 314 314 318 326 331 326 322 318 315 317 322 330 339 347 351 347 345 345 346 343 341 341 340 339 337 336 337 337 336 338 336 333 335 334 333 332 331 331 332 333 333
313 313 313 313 313 313 312 313 313 312 313 312 312 312 313 313 314 315 316 315 315 314 314 313 313 312 310 307 306 305 305 306 305 305 304 304 304 304 303 304 304 304 304 305 306 307 309 311 312 311 311 310 310 312 313 315 316 321 330 340 343 338 337 337 337 337 337 337 335 334 334 334 334 334 333 332 331 330 328 329 329 325 327 328 328
311 312 312 312 311 311 311 311 312 311 310 310 309 309 309 310 310 310 310 310 309 308 308 307 308 307 307 305 305 305 304 304 303 303 303 302 302 302 302 302 302 302 303 304 306 307 308 309 309 309 309 309 310 311 311 312 312 313 316 322 327 328 327 330 333 335 336 335 333 332 331 330 330 332 331 331 330 328 326 325 325 325 324 323 323
310 310 311 311 309 309 310 310 310 309 309 308 308 307 307 307 307 307 307 306 306 305 305 304 304 303 303 303 302 302 302 302 301 301 301 301 302 302 302 302 302 302 302 303 304 305 306 307 307 308 309 309 310 309 308 308 308 310 311 313 316 318 320 323 326 327 328 328 329 329 327 326 325 325 325 327 326 325 322 321 320 320 320 320 320
308 309 309 309 308 308 308 308 308 308 307 307 306 305 305 304 304 304 303 303 303 303 302 302 301 301 301 301 301 300 300 300 300 300 300 300 300 301 301 301 301 301 302 302 302 303 303 304 305 305 306 307 307 306 306 306 307 308 309 310 313 314 314 312 320 320 320 321 323 323 321 319 318 319 321 323 321 318 316 316 316 316 316 316 316
307 307 307 307 307 306 306 307 307 306 306 305 304 303 303 301 301 301 301 301 300 300 300 299 299 299 300 300 300 299 299 299 298 298 298 298 298 298 299 299 299 299 300 299 300 300 301 301 302 303 303 304 304 304 304 305 305 305 305 305 303 300 299 302 309 315 311 318 317 315 313 312 311 312 314 315 315 315 313 313 313 312 312 311 311
306 307 306 306 305 305 306 306 305 305 305 304 302 301 301 300 300 299 299 299 299 298 298 298 298 297 297 297 298 297 297 296 296 296 296 296 297 297 297 297 298 298 298 298 299 299 299 299 300 300 300 300 300 300 301 302 302 302 302 300 297 296 297 300 302 306 314 315 313 312 311 310 310 310 311 312 312 311 310 309 309 309 308 308 308
307 306 305 305 305 305 304 304 304 304 303 302 301 300 299 299 298 298 298 297 296 296 296 296 296 296 296 295 296 295 295 295 295 295 295 295 296 296 297 296 296 296 296 296 296 297 297 297 298 299 299 299 299 299 300 300 299 298 295 294 293 294 295 299 305 297 301 306 312 311 310 308 307 306 306 307 308 308 307 307 308 308 307 306 306
Wind_Speed
16 14 14 14 15 15 15 13 14 12 12 12 12 11 10 10 10 9 7 8 7 8 8 8 8 8 8 7 8 7 7 7 6 6 6 6 6 6 5 5 5 5 5 5 5 4 5 5 5 4 3 4 4 4 4 4 3 3 2 3 3 3 3 3 5 6 4 2 3 4 4 4 4 3 5 6 6 6 6 6 6 6 5 4 3
15 14 14 13 15 15 15 14 13 12 14 13 13 11 11 11 10 9 10 9 9 10 10 9 8 8 8 8 8 8 7 7 7 7 7 7 7 5 6 6 6 6 5 6 6 5 5 5 6 5 4 5 5 5 5 4 5 5 4 3 4 4 3 4 4 5 7 3 3 2 4 2 5 2 4 6 7 6 7 6 5 5 5 3 3
15 14 14 14 15 15 14 14 13 15 15 14 14 14 13 12 11 11 11 10 10 10 10 10 9 9 8 8 8 8 8 8 8 8 7 7 7 7 6 7 7 7 7 7 7 6 6 6 7 6 4 6 6 6 5 5 4 5 5 4 4 4 3 4 4 6 7 6 4 5 3 3 4 5 5 4 4 3 5 6 5 5 3 3 3
15 14 15 15 16 15 15 14 16 15 16 14 15 15 13 12 11 12 12 11 10 10 10 10 9 9 9 9 9 8 8 8 8 8 8 8 8 8 7 7 7 8 8 8 8 7 8 7 7 7 6 6 6 5 5 5 5 4 5 4 4 5 4 4 5 5 6 7 5 5 4 4 4 3 3 4 4 3 3 4 4 4 4 3 1
15 15 16 17 16 16 16 15 15 16 16 14 16 15 14 12 11 12 12 12 12 10 10 10 10 10 10 10 10 10 10 9 9 9 9 8 9 8 8 8 8 8 8 8 8 8 8 8 8 7 6 7 6 6 5 6 5 5 5 5 4 4 4 4 5 5 5 7 7 4 3 4 3 3 3 4 5 4 3 3 3 3 4 4 3
15 15 15 16 16 17 16 16 17 17 17 15 16 15 14 13 12 11 12 12 12 11 11 10 10 11 11 11 11 10 9 9 10 10 10 9 9 9 8 8 8 9 9 9 9 9 9 9 8 8 7 7 7 6 6 6 6 6 6 5 5 4 5 5 5 5 6 6 7 7 4 4 4 3 3 3 5 6 5 3 3 1 3 4 4
15 15 16 17 15 16 16 16 15 16 15 15 13 13 14 14 14 13 12 13 12 12 12 12 11 11 12 11 11 11 10 10 9 10 10 9 9 9 9 9 9 8 9 10 10 10 10 9 9 9 9 8 8 7 6 7 6 7 6 6 5 5 5 5 5 5 6 6 6 6 6 4 3 4 2 2 4 5 5 4 4 1 1 3 4
14 15 15 15 15 16 16 16 15 14 13 13 13 14 14 13 13 12 11 13 13 14 13 13 12 11 11 11 11 10 9 9 9 9 9 10 9 10 10 10 10 9 9 10 10 10 10 10 10 10 9 9 8 8 7 7 6 7 6 6 6 6 6 5 5 5 6 6 6 6 6 5 4 4 4 3 4 4 3 3 5 5 4 3 4
14 15 14 15 14 14 13 13 12 13 13 12 12 13 13 12 12 12 11 12 11 13 13 13 12 12 12 11 11 10 10 10 9 9 10 11 10 11 11 10 10 10 10 10 10 10 10 10 10 11 10 10 10 9 8 6 6 6 6 6 6 6 6 6 5 5 6 6 6 6 6 5 5 4 5 4 4 4 3 3 5 5 4 5 4
15 15 16 15 14 13 12 11 12 13 12 12 12 13 13 13 13 13 12 12 11 11 11 12 12 13 12 12 11 10 10 9 10 14 12 10 11 10 9 10 10 10 9 9 10 10 11 10 10 12 11 11 11 12 12 11 11 10 7 6 6 6 6 6 6 6 6 7 7 6 7 6 5 4 5 5 4 4 4 4 5 4 4 5 5
14 16 16 16 14 13 12 12 11 12 12 12 12 12 14 13 12 12 12 12 12 11 11 12 13 12 13 13 13 11 11 10 15 15 16 16 11 10 10 9 9 10 10 10 10 10 10 10 10 10 11 12 12 14 13 14 14 14 14 12 9 7 7 7 7 7 7 7 7 7 7 7 7 6 6 6 4 5 4 4 5 5 5 5 6
15 15 16 13 12 13 13 13 13 13 12 13 13 13 13 13 12 12 12 13 11 11 12 13 13 13 12 13 14 13 12 13 15 16 17 18 15 12 10 10 10 10 10 11 10 10 10 10 9 8 9 11 11 10 13 15 15 15 15 14 14 14 12 10 8 7 8 8 7 8 8 8 6 5 6 5 4 4 5 5 5 6 6 6 6
14 14 14 13 12 12 12 13 13 13 13 14 13 12 12 13 14 13 14 14 12 12 13 14 14 14 13 13 14 14 13 15 16 17 17 18 18 15 11 11 11 11 11 11 11 10 9 9 9 8 8 12 11 11 10 10 14 17 16 15 14 15 14 15 14 12 9 8 9 9 8 7 7 7 6 6 4 6 5 5 5 6 6 7 7
9 11 11 11 11 11 12 12 13 13 13 12 11 11 12 13 15 14 13 12 12 13 15 15 13 13 13 14 13 14 15 14 17 18 18 18 18 15 13 13 12 12 12 11 11 11 11 10 10 9 9 9 9 11 11 11 9 9 10 10 11 13 15 16 16 17 14 11 10 10 9 8 8 8 7 6 6 7 6 7 6 7 7 8 8
8 3 6 5 3 4 5 9 10 11 11 11 11 12 13 13 14 13 12 13 13 13 14 14 13 13 14 14 13 14 14 16 16 19 19 19 19 15 12 12 12 11 11 12 12 12 12 11 11 12 11 10 9 11 11 10 10 9 9 10 11 11 11 12 12 11 11 12 12 13 12 10 10 10 8 7 8 8 7 8 7 7 7 7 7
6 7 6 4 2 2 4 7 7 8 9 9 11 12 13 12 12 12 11 12 11 12 12 13 13 14 15 15 14 15 15 16 16 18 20 19 18 10 10 12 13 12 12 12 12 11 12 12 11 12 12 12 12 14 13 10 10 10 11 11 10 10 11 12 12 12 12 10 11 12 11 11 9 9 7 5 6 5 5 5 5 6 6 6 7
4 5 4 4 2 1 3 4 5 7 8 9 12 14 13 12 12 10 11 12 12 12 13 14 13 14 15 14 15 15 15 16 18 19 19 19 14 10 11 11 12 13 13 12 12 12 12 12 12 12 12 13 13 14 15 13 11 12 11 11 10 10 11 9 13 17 16 14 13 12 13 12 11 11 11 7 6 6 7 7 8 6 6 7 7
5 5 3 3 4 4 4 5 6 6 5 8 10 10 11 12 11 9 11 12 13 14 13 12 13 13 15 15 15 16 16 15 18 18 19 19 16 12 10 11 12 12 13 13 12 11 13 16 14 13 13 13 14 14 15 13 12 12 12 12 12 12 12 11 8 9 17 17 16 17 16 15 14 13 12 10 9 7 8 9 7 6 8 7 7
8 7 6 6 5 4 5 5 6 8 9 8 8 9 9 11 9 7 10 11 13 12 11 12 13 12 14 16 15 17 16 15 17 19 20 19 17 11 11 10 11 12 12 12 12 12 12 13 18 16 14 15 16 14 15 14 13 13 13 12 12 13 12 10 10 10 7 7 9 10 10 12 11 9 10 14 12 12 11 11 8 7 8 7 7
7 8 7 6 6 5 4 4 6 10 11 9 10 11 10 9 9 8 13 11 12 12 12 13 14 13 13 15 14 16 17 16 14 20 20 20 21 13 10 11 13 14 13 13 11 11 12 12 13 19 20 19 17 16 15 17 14 12 12 12 12 14 11 11 11 10 9 10 9 9 9 8 8 8 8 8 9 12 12 11 10 9 8 8 8
7 8 7 8 7 5 4 4 3 4 9 9 9 10 9 9 10 11 11 9 13 15 15 14 14 14 14 13 14 16 15 16 15 19 20 21 22 19 11 14 14 13 12 12 12 12 11 12 12 15 20 20 20 19 16 17 16 13 13 13 14 13 11 10 10 11 11 10 9 8 8 7 7 7 7 7 8 9 10 11 11 10 10 9 9
9 8 8 8 9 6 4 4 5 5 6 6 6 7 7 9 10 11 9 10 13 16 15 13 13 13 12 14 14 15 15 17 15 16 20 22 22 24 15 15 16 13 12 12 13 13 13 12 11 14 18 19 20 20 19 16 18 12 14 17 17 15 12 11 10 9 8 8 8 8 7 7 7 8 8 8 8 9 9 10 11 12 11 11 10
10 8 7 8 8 7 4 6 6 5 5 5 5 7 8 7 6 7 8 9 12 13 12 14 14 14 14 14 13 14 14 13 19 15 18 21 22 23 24 19 17 14 14 14 14 14 12 12 12 14 15 17 18 19 18 17 13 13 20 19 17 18 13 10 10 9 9 9 8 7 7 8 8 8 8 8 8 9 9 10 10 11 10 9 10
10 9 7 7 9 9 9 8 7 6 6 6 7 7 7 7 8 9 8 9 12 14 13 16 16 16 17 16 16 15 14 13 14 20 16 21 21 23 24 25 19 14 15 15 14 13 13 12 11 14 15 17 18 17 17 15 13 19 20 21 19 15 8 9 8 9 9 9 10 11 10 9 9 9 8 8 9 8 9 9 9 9 8 8 9
10 9 8 8 8 9 9 8 9 9 8 7 6 6 7 7 6 6 8 9 12 14 15 16 16 16 15 16 16 15 15 14 12 14 21 19 22 22 23 24 23 20 16 16 15 13 13 14 14 15 16 16 17 16 13 15 20 20 19 19 16 8 9 9 10 9 12 12 11 10 10 10 10 10 8 8 8 7 7 7 7 7 7 7 8
10 9 9 8 9 9 10 10 10 10 10 9 8 6 7 6 6 6 6 8 10 13 15 16 16 16 15 16 16 15 14 14 14 11 12 17 17 22 23 23 23 23 22 18 18 18 16 14 16 16 15 13 10 8 8 11 17 20 20 16 9 10 9 9 9 10 11 11 10 11 11 9 9 8 8 7 7 8 8 9 7 7 8 9 8
10 10 9 9 8 9 10 9 10 11 10 7 7 7 6 6 6 7 8 11 12 14 14 16 16 16 17 16 14 13 13 15 14 13 10 10 11 12 13 14 18 18 15 15 15 12 14 13 11 12 11 14 15 14 14 14 12 11 10 10 11 11 11 11 12 11 11 10 10 10 9 9 7 6 6 7 8 8 8 10 9 9 9 8 9
9 10 11 9 7 6 8 11 11 10 10 9 7 6 6 7 8 9 10 12 14 17 17 17 16 17 15 14 12 12 13 13 13 13 12 10 10 11 11 11 11 11 13 12 12 14 13 13 13 10 8 8 9 8 10 10 11 11 10 10 10 11 13 13 12 10 10 9 9 8 8 8 8 8 8 8 8 8 8 9 10 10 9 9 9
9 10 10 9 7 7 7 8 8 9 9 9 8 7 7 7 8 9 12 13 14 15 14 14 14 14 13 12 12 11 12 13 14 12 12 13 13 12 12 12 11 10 15 15 7 5 8 11 11 12 11 12 11 10 11 10 11 11 11 10 9 9 9 9 11 11 10 10 10 10 10 9 9 7 8 10 11 10 7 9 9 10 9 10 12
10 9 9 8 7 7 7 7 8 8 9 9 9 9 9 12 11 10 11 11 16 19 16 14 13 11 12 13 11 12 13 12 6 10 15 15 15 16 14 13 15 13 14 16 11 9 10 12 13 13 13 12 13 13 13 12 12 12 12 12 11 10 11 10 11 11 10 11 10 10 9 9 8 8 10 11 10 9 7 9 10 8 9 11 11
8 8 8 8 8 8 9 8 7 8 8 9 9 9 10 9 15 20 19 16 16 17 17 22 22 20 15 15 14 16 17 14 4 10 14 16 17 17 17 15 15 18 11 11 8 11 11 12 13 13 14 13 13 14 13 12 12 12 12 11 11 11 11 11 10 10 10 9 9 9 9 8 9 9 12 12 11 10 8 9 11 10 11 11 11
8 8 8 9 9 9 8 8 7 9 10 9 8 9 9 11 11 11 16 17 18 21 22 22 22 21 23 21 17 15 15 14 15 13 14 16 18 18 17 17 17 16 16 18 11 12 12 13 12 13 13 14 14 13 13 13 12 12 11 11 12 11 11 12 10 9 9 10 10 10 10 10 12 11 12 13 10 9 6 8 10 10 9 10 10
9 9 9 9 10 11 10 8 7 8 10 11 10 9 10 11 12 13 11 12 16 19 19 19 20 20 19 19 20 21 22 13 11 16 15 15 16 16 16 17 17 14 14 11 13 12 12 12 13 13 13 14 13 12 12 13 12 11 11 12 12 11 11 11 9 10 11 11 10 9 10 12 12 12 12 12 10 11 8 10 9 9 8 8 8
8 7 7 8 9 9 9 8 8 8 9 10 10 10 11 10 11 11 12 13 12 10 13 16 18 18 17 18 18 19 21 21 16 13 15 16 15 14 13 8 4 10 16 13 12 13 12 12 13 13 13 12 12 12 12 12 12 11 11 11 11 10 9 9 10 11 10 9 11 13 12 12 9 11 12 11 10 10 10 10 9 9 9 9 9
7 10 16 13 9 9 9 9 8 8 8 10 10 11 11 10 10 11 11 12 12 11 11 10 9 13 15 15 17 20 20 19 18 16 12 11 11 9 11 5 5 5 6 10 11 11 12 12 13 13 12 12 12 12 12 12 11 11 11 10 10 11 10 11 11 12 13 12 11 11 11 11 11 10 10 11 11 11 11 9 9 9 10 10 11
8 7 8 10 9 9 9 9 8 8 9 9 10 11 11 12 11 11 11 13 12 12 12 11 9 7 15 18 18 16 15 16 17 15 13 11 12 16 9 9 9 9 10 12 13 14 13 13 13 12 11 11 11 11 12 11 11 10 10 10 11 11 11 11 11 13 13 12 12 11 10 10 10 11 12 12 14 14 12 10 9 9 9 11 11
7 7 7 7 8 9 9 9 9 9 11 11 10 11 11 11 11 10 10 10 12 12 12 11 10 10 3 4 9 13 14 12 13 12 13 13 17 14 12 12 12 11 11 12 12 12 13 13 13 12 12 12 12 11 10 10 10 10 10 11 10 11 11 10 10 11 11 12 12 11 10 11 11 12 12 12 12 13 11 10 10 10 11 13 11
9 8 7 7 8 10 9 9 10 12 10 10 10 10 10 10 11 10 10 11 13 12 12 11 10 10 10 8 4 4 4 3 6 4 5 6 9 10 13 13 13 13 12 12 11 12 13 13 13 13 12 12 12 11 10 10 10 10 10 10 11 11 11 9 10 10 11 11 11 11 11 11 11 12 12 13 13 11 11 9 10 10 11 10 9
8 9 10 11 10 10 9 10 9 9 9 10 10 9 10 10 10 10 10 10 11 11 11 10 9 9 8 8 2 5 6 4 6 7 8 8 10 11 13 14 14 15 14 13 11 11 13 13 13 12 11 11 11 10 10 10 10 10 10 10 11 10 10 11 12 10 11 11 11 11 11 11 11 12 12 12 12 11 11 10 10 10 11 9 13
9 8 7 8 8 8 8 9 10 9 9 10 10 9 8 9 9 10 10 9 10 10 10 10 9 7 6 7 3 5 5 6 7 8 9 9 10 11 11 12 13 14 13 12 12 13 14 13 12 11 11 10 10 10 9 10 10 10 10 11 11 11 10 10 12 11 10 9 10 9 11 11 12 11 10 10 9 10 11 11 10 12 12 11 11
9 9 8 8 8 8 9 9 8 8 9 10 11 10 10 10 9 10 11 12 12 12 11 10 10 8 6 5 5 8 7 7 7 7 8 9 9 10 11 12 12 13 13 12 11 11 12 12 10 10 10 10 9 9 9 10 10 11 11 10 10 10 9 11 11 10 9 10 10 11 11 11 10 9 12 10 10 8 8 8 9 9 9 9 10
9 9 8 8 8 8 9 9 9 10 10 11 10 10 9 9 9 9 10 12 12 12 13 12 10 8 7 12 12 14 10 8 8 7 6 8 8 9 9 10 10 10 11 12 13 11 10 10 10 9 9 8 8 9 9 11 11 12 11 11 14 12 11 12 10 8 10 10 10 10 10 9 10 10 9 7 8 8 7 9 11 11 12 12 9
9 9 9 8 8 8 8 9 9 9 9 9 9 9 10 10 9 9 9 10 11 12 11 12 11 9 3 5 6 5 6 7 6 7 5 4 4 4 3 4 4 5 5 6 6 6 7 11 12 8 6 7 7 8 9 10 11 11 11 11 10 11 12 10 7 8 9 8 9 8 8 8 9 9 8 7 8 9 11 10 7 8 11 12 11
9 9 8 8 8 7 8 8 9 9 9 10 10 9 8 8 8 9 9 9 7 6 5 4 3 5 5 5 7 8 7 7 8 8 8 7 7 7 7 8 8 8 9 9 8 7 6 7 6 7 6 5 6 7 7 6 6 8 9 10 10 9 7 8 9 9 8 7 7 7 8 8 8 8 7 8 8 8 7 6 6 5 5 6 6
8 8 8 7 6 6 7 7 8 8 9 9 8 8 8 7 7 6 7 6 5 4 3 3 3 4 6 6 7 7 8 7 7 8 8 8 7 7 7 7 8 8 8 7 7 7 7 5 3 2 2 3 3 1 1 3 2 3 5 4 3 4 5 7 7 7 8 9 8 8 8 9 9 9 8 8 7 7 6 6 5 5 5 6 6
8 8 8 7 6 6 6 6 7 7 7 7 7 6 6 5 5 5 5 5 4 4 4 4 4 5 6 6 7 7 8 8 8 8 8 8 8 8 8 8 9 9 8 8 8 9 8 6 4 3 3 2 2 2 1 2 3 4 4 3 3 2 2 2 5 7 8 9 10 10 10 9 8 8 9 8 7 7 7 7 7 7 8 10 9
7 8 7 6 5 5 5 6 6 6 6 6 5 5 4 4 4 4 4 5 5 5 5 5 5 6 7 8 8 9 9 9 9 9 10 10 10 9 9 9 10 10 11 10 10 9 9 9 8 6 4 3 3 3 3 4 4 4 4 4 4 4 4 4 4 4 5 5 7 7 7 7 7 7 9 9 9 9 9 8 9 10 9 8 9
6 6 6 6 5 4 4 4 5 5 5 4 3 3 3 3 4 5 5 5 6 6 6 6 6 7 8 9 10 10 10 10 10 10 11 11 11 12 12 13 13 12 11 11 10 10 9 9 9 10 9 7 7 6 6 6 6 6 6 5 5 4 6 7 7 7 7 7 7 7 8 9 9 7 6 7 8 9 12 9 9 9 9 8 7
5 5 5 5 3 3 2 3 3 3 3 2 1 2 3 4 5 5 5 6 6 6 6 7 7 8 8 9 10 10 11 11 11 11 11 12 13 13 13 14 14 14 13 12 9 11 11 10 9 9 11 11 9 8 8 8 9 8 8 7 9 14 14 12 8 7 10 9 10 11 12 12 13 12 11 10 9 8 9 9 9 9 10 10 9
4 4 4 4 2 2 1 1 2 2 1 0 1 2 3 4 5 6 6 7 7 7 7 8 8 8 8 9 10 11 11 11 11 12 12 12 12 13 13 15 15 16 16 16 13 10 10 12 12 11 12 12 12 11 10 10 9 8 7 10 17 18 17 16 15 12 9 7 8 9 11 12 13 13 9 9 9 11 11 10 9 10 11 10 10
3 2 2 2 1 1 1 1 0 1 1 1 2 3 4 5 5 6 7 8 8 7 7 8 9 10 10 10 11 11 11 11 10 10 11 11 12 12 13 14 15 14 15 15 13 10 11 12 12 11 12 14 14 13 12 9 8 8 14 20 21 21 20 17 13 14 15 12 9 7 9 12 14 14 12 10 10 11 13 12 11 10 10 10 10
Wind_Direction
192 193 192 197 196 195 197 196 200 201 205 203 204 204 202 203 205 209 195 201 196 199 203 205 203 205 211 210 214 210 212 214 211 213 214 219 224 234 238 220 226 235 234 239 235 223 227 236 245 244 232 253 262 268 263 249 242 245 229 223 236 203 227 250 278 289 287 222 274 296 319 312 318 317 326 336 343 350 334 347 343 354 353 358 79
194 192 193 196 198 199 201 200 200 201 204 206 208 207 205 201 200 192 200 202 199 205 205 207 206 205 209 209 209 209 206 208 214 214 217 218 223 222 228 224 226 234 232 236 233 234 228 235 243 243 227 246 259 262 263 261 254 256 239 249 256 251 210 255 269 283 294 274 264 290 293 253 309 321 325 332 340 337 338 337 348 352 349 347 341
194 190 191 192 197 199 199 199 196 199 203 207 210 212 208 206 196 197 206 207 201 206 207 209 203 202 210 209 204 208 205 208 210 213 215 217 221 230 228 225 229 235 232 231 237 236 237 240 247 245 235 243 245 256 259 258 266 270 269 259 260 261 230 224 258 277 291 296 289 290 297 300 303 320 322 316 308 307 319 336 339 348 348 331 333
195 192 193 197 198 197 197 200 200 200 205 209 211 212 212 208 199 202 204 206 202 200 205 206 201 201 210 211 209 209 204 205 208 209 211 215 220 221 225 225 231 235 241 243 240 235 240 244 249 247 242 244 247 251 249 246 246 250 256 246 243 255 254 225 231 261 281 290 293 294 310 311 306 304 304 297 297 307 312 318 308 333 336 327 302
198 197 196 199 200 201 204 202 203 204 207 209 212 212 212 209 203 206 206 208 207 200 197 199 201 202 212 214 212 210 208 205 206 212 211 211 213 218 220 222 225 231 238 242 243 243 243 245 251 240 229 240 243 240 239 234 239 244 248 242 237 242 240 234 236 236 258 275 290 287 282 279 278 280 281 305 306 297 283 269 321 325 324 331 320
199 197 197 200 202 203 204 204 205 206 207 209 211 211 210 210 207 203 206 208 207 206 199 198 202 205 210 214 212 210 207 205 207 211 213 210 208 213 216 220 225 227 232 235 239 240 244 246 245 241 235 234 243 241 236 234 234 237 240 239 236 228 231 234 231 237 250 264 276 287 271 285 291 282 270 280 301 310 306 278 257 281 322 331 345
196 197 198 201 202 204 204 204 205 206 206 208 209 209 210 210 210 208 203 207 208 210 207 203 203 208 210 212 214 211 207 207 208 209 213 211 208 210 216 218 222 226 229 233 237 238 242 244 242 239 240 239 242 241 234 232 234 240 233 234 233 228 235 238 230 239 247 261 268 269 278 268 262 292 244 244 278 277 296 312 315 281 285 322 321
195 196 198 202 203 205 206 205 205 205 206 204 206 209 209 210 211 210 205 205 209 212 212 207 205 209 212 213 215 213 209 208 207 209 210 211 212 214 215 220 223 226 230 231 234 239 239 241 244 241 238 237 240 243 239 239 234 241 235 226 226 229 242 242 238 244 250 255 262 273 274 278 266 266 262 246 270 261 248 305 313 318 319 302 296
195 195 198 202 205 205 204 205 205 203 202 199 202 206 209 210 208 207 205 208 211 214 214 213 211 210 212 211 213 212 215 215 213 209 209 210 215 218 216 218 222 226 230 232 230 231 235 240 241 242 236 232 232 239 248 244 247 247 239 225 226 229 235 239 238 242 247 255 262 260 261 260 259 261 268 263 268 293 301 278 280 282 288 299 298
194 200 202 204 203 199 197 199 202 202 199 199 201 204 209 211 210 208 210 210 212 212 214 215 216 214 212 211 210 211 213 216 209 206 207 212 212 218 218 218 222 225 227 230 232 229 230 235 240 235 230 226 227 229 232 236 235 248 254 234 224 228 233 238 238 236 242 251 255 258 262 261 260 252 267 269 269 266 262 248 270 281 277 281 278
198 200 207 206 202 198 193 194 198 200 201 201 202 205 210 213 213 212 211 208 209 205 205 213 219 221 220 218 215 215 216 218 207 202 207 213 217 217 217 218 216 220 225 228 233 233 232 230 237 229 220 227 233 229 230 227 228 233 240 247 249 241 240 238 239 237 240 249 253 253 257 265 264 270 270 278 263 265 275 276 276 277 278 294 300
206 205 208 204 198 194 200 202 203 208 205 206 204 203 205 207 209 207 205 207 203 206 211 215 218 219 221 221 221 220 221 218 204 203 206 209 212 221 224 226 225 221 224 228 232 233 233 233 232 232 226 228 232 226 221 224 226 228 232 235 235 238 240 244 247 246 240 246 248 249 256 255 259 251 264 269 263 261 257 260 259 264 273 271 278
209 207 208 205 199 194 201 202 203 207 207 206 205 202 200 205 209 210 212 212 209 206 212 213 213 214 218 219 221 222 225 213 203 204 206 207 209 215 230 230 227 226 223 223 229 232 231 233 236 230 235 216 221 234 239 226 215 223 229 232 238 236 234 236 241 247 257 254 253 257 249 257 256 251 247 253 247 261 262 253 246 251 256 264 271
238 210 207 209 203 200 203 205 208 211 209 206 204 204 205 210 215 215 214 208 204 206 211 214 215 213 215 219 221 224 227 216 201 204 206 207 208 206 226 230 230 230 226 224 227 230 228 229 231 233 232 223 218 223 228 233 233 219 219 225 232 231 227 230 234 238 241 250 255 256 253 243 250 251 246 229 232 250 253 265 263 260 252 258 277
24 305 234 229 227 234 229 228 227 222 218 212 209 208 209 214 215 216 215 209 205 207 213 215 215 213 215 217 221 226 230 221 199 202 206 208 208 203 222 228 233 232 227 226 226 229 229 227 229 235 235 228 219 213 222 225 227 229 230 229 229 234 232 226 222 224 225 229 237 243 251 250 252 252 250 234 232 241 251 262 269 270 273 282 275
18 30 35 34 53 127 157 201 222 231 240 233 222 218 217 215 214 213 214 216 217 216 213 217 217 217 217 219 223 228 232 216 201 201 204 207 203 203 217 223 230 233 232 230 228 227 228 228 229 232 235 236 222 202 210 225 232 233 234 235 238 239 240 231 222 222 230 228 227 237 244 248 249 255 262 260 246 243 246 251 252 247 254 258 264
9 355 350 339 342 264 238 240 224 211 200 218 239 238 227 220 219 214 218 220 220 216 217 216 219 221 219 216 219 227 233 216 200 200 201 202 192 208 213 220 225 230 234 233 230 228 227 226 225 233 236 235 227 201 202 208 232 237 238 241 242 246 247 240 204 215 224 231 241 245 251 255 255 253 252 246 247 254 253 256 249 231 233 250 254
27 21 13 321 306 286 257 236 237 242 229 211 219 234 245 242 225 215 218 220 222 224 220 222 222 222 221 220 218 223 232 221 198 201 199 192 191 202 208 213 223 225 232 232 231 230 229 224 223 228 234 237 228 204 196 194 221 232 236 240 243 244 246 245 239 211 212 221 226 234 238 243 244 249 251 236 208 210 223 234 234 229 246 244 253
357 351 342 327 315 298 274 252 239 239 235 227 223 229 231 251 253 227 232 227 231 231 227 227 226 223 223 224 218 222 233 230 199 200 197 191 193 208 208 213 221 227 228 231 229 231 233 225 221 225 231 236 232 212 194 190 217 225 230 236 241 245 246 247 240 245 217 203 221 225 238 237 236 232 231 222 202 205 220 232 238 232 238 236 240
336 331 323 310 305 301 303 299 263 238 228 217 210 218 218 207 226 230 241 241 243 237 229 227 228 227 226 225 225 222 231 236 207 196 194 191 193 202 208 209 222 224 225 229 231 229 230 234 222 216 224 232 235 223 200 193 210 222 228 234 238 242 247 245 241 242 242 235 238 225 228 225 212 209 220 211 198 205 217 223 228 224 224 232 232
324 325 324 315 297 290 282 265 251 253 241 227 224 227 219 209 194 211 230 234 247 246 235 232 231 232 229 227 228 226 227 229 221 190 193 189 194 197 208 214 220 222 223 224 230 235 233 229 237 212 210 221 228 230 213 199 207 219 224 231 232 239 245 251 246 230 244 245 242 241 243 237 231 228 215 208 204 201 208 217 223 221 219 226 234
319 319 320 312 299 283 267 264 241 224 227 228 222 227 210 203 201 211 214 220 237 242 238 233 236 236 235 231 230 230 225 219 231 196 192 191 192 196 209 217 216 219 222 229 231 236 234 232 228 216 205 211 220 226 222 205 206 215 228 230 234 237 240 246 256 255 246 243 242 242 240 240 241 237 229 221 221 211 208 208 213 221 219 225 231
316 313 322 319 310 310 283 252 259 251 222 205 213 215 210 212 204 201 208 220 236 250 257 249 241 241 245 243 240 234 230 222 214 215 193 192 192 197 207 218 211 214 226 229 229 232 231 231 233 223 210 209 214 221 222 211 201 220 230 233 233 235 236 244 251 252 252 252 250 248 245 244 245 242 231 228 228 218 216 216 214 214 220 227 234
316 317 331 331 323 322 317 303 264 256 259 237 211 219 219 206 204 207 209 215 232 235 231 242 242 243 244 247 248 247 239 232 207 208 204 190 195 198 206 216 215 215 222 234 233 232 233 230 231 222 214 212 215 219 220 207 212 219 224 230 233 234 233 237 237 240 243 248 248 253 248 239 242 242 236 230 233 216 215 222 223 218 214 223 226
316 318 328 327 321 317 312 311 308 288 257 245 246 232 225 224 218 210 210 223 233 241 238 241 242 241 240 242 245 245 244 236 233 201 202 192 196 200 206 210 217 216 222 233 235 236 234 231 231 223 220 217 216 217 220 217 219 224 223 226 227 229 223 225 232 233 245 244 241 236 238 237 235 237 236 236 234 227 218 233 220 217 211 218 236
315 317 320 322 321 318 312 311 300 287 279 264 250 242 239 224 227 227 222 229 229 233 243 244 241 238 238 240 241 242 240 246 240 223 188 200 199 202 204 207 213 215 221 232 230 233 236 230 227 225 224 223 216 211 212 213 217 222 225 223 218 220 216 216 218 222 231 233 231 232 234 235 234 235 233 229 235 231 237 233 208 212 217 226 224
312 313 315 314 320 319 312 307 307 303 293 278 252 241 237 236 235 237 236 238 238 240 241 242 241 240 242 239 236 237 240 244 244 236 210 192 199 199 203 213 216 218 224 235 239 240 239 238 234 227 230 221 217 217 218 222 218 220 222 213 213 214 210 210 214 215 222 227 231 232 234 236 239 235 222 222 233 230 225 239 234 239 227 216 217
309 307 304 305 305 309 305 298 295 289 288 282 272 252 231 229 234 234 233 234 235 236 238 240 241 241 243 239 236 233 234 236 236 229 222 209 199 193 191 194 197 198 213 220 219 227 233 232 232 237 229 233 225 225 224 220 218 215 215 209 209 212 216 213 215 223 226 229 237 238 237 227 229 230 233 233 236 241 234 232 238 237 222 215 214
305 300 297 294 300 299 292 291 286 287 286 283 274 260 255 248 239 237 236 239 240 241 240 239 238 241 241 242 237 233 233 232 229 218 219 212 208 210 200 199 195 199 210 204 189 224 231 237 237 228 227 226 224 221 220 214 219 223 224 218 214 213 214 212 213 214 215 218 224 223 229 226 230 224 239 250 249 243 221 229 230 231 218 217 225
301 300 300 302 303 297 287 288 293 293 291 287 286 281 258 245 251 259 261 247 235 239 242 247 247 249 251 248 242 238 235 235 230 196 209 210 212 212 215 203 200 207 207 182 188 216 217 227 228 229 227 225 226 226 224 219 217 220 224 220 221 223 218 216 218 219 213 216 220 221 226 227 228 229 244 245 247 242 219 213 226 221 222 221 225
296 294 295 293 293 288 286 286 293 292 288 286 283 281 287 261 233 234 242 250 255 251 240 247 253 254 253 260 254 240 247 258 238 199 202 209 211 213 216 212 200 209 171 128 190 212 222 220 224 227 229 229 228 226 223 221 218 218 221 215 211 218 219 221 220 215 215 218 221 226 228 220 238 243 245 244 243 239 226 210 220 225 226 227 224
286 287 289 290 293 290 288 291 297 297 294 286 279 285 281 285 288 246 230 237 241 246 247 244 241 237 243 244 252 263 250 234 225 207 207 209 211 212 213 210 211 196 173 169 187 209 214 220 223 224 224 227 229 227 224 224 221 217 215 217 218 217 214 220 209 211 221 225 225 224 227 239 242 238 239 242 232 228 196 208 212 219 222 224 222
279 283 285 287 289 291 290 290 289 285 287 288 289 284 281 282 280 292 281 232 233 245 251 251 252 255 250 247 242 241 252 253 216 218 215 215 211 212 209 209 209 184 150 180 213 215 215 217 224 224 222 226 227 226 224 224 223 217 214 219 222 219 216 215 202 222 226 227 224 225 230 238 235 235 236 234 221 228 210 216 211 211 212 216 219
275 276 277 279 282 284 284 284 286 285 282 284 286 288 287 285 285 285 287 299 297 268 247 248 257 263 263 253 249 248 247 248 247 231 223 222 212 208 199 198 141 168 183 199 206 219 215 218 222 225 225 226 226 224 223 219 218 219 219 220 226 229 220 204 204 216 226 224 232 241 235 233 220 227 233 231 226 225 221 216 210 206 208 211 218
268 273 276 278 278 281 283 284 286 287 283 279 281 282 279 282 286 288 291 288 286 284 295 287 251 224 242 253 244 241 243 243 239 237 230 224 212 169 139 143 164 204 235 238 224 221 222 220 225 223 224 224 223 221 221 220 219 217 219 220 223 225 223 222 219 218 228 231 230 230 229 227 222 217 221 220 218 216 217 207 204 202 209 213 219
267 269 274 280 281 280 281 282 283 283 283 281 281 280 280 280 276 276 278 279 277 281 284 275 279 259 232 242 249 249 243 240 241 234 221 197 168 147 177 203 201 203 205 208 216 219 223 226 227 227 222 224 222 221 223 226 220 217 216 214 216 220 221 221 221 226 223 226 229 228 223 222 221 214 220 225 223 222 219 207 199 204 207 219 224
265 266 270 274 278 280 281 283 282 278 276 279 278 276 275 273 271 272 271 271 275 279 276 284 290 288 246 229 245 254 246 238 235 227 206 185 173 180 212 207 212 207 204 210 210 216 218 225 227 229 225 223 227 227 225 224 222 218 214 214 215 218 222 219 219 215 213 222 224 220 217 217 211 210 214 217 220 223 222 214 204 200 208 216 213
263 262 262 269 279 284 282 276 276 277 273 269 267 268 271 270 273 274 272 269 273 277 280 283 282 286 291 297 181 220 188 144 120 127 147 145 173 207 217 226 223 217 211 211 204 205 214 221 223 224 225 224 227 225 222 223 219 220 216 211 213 220 213 211 206 215 219 221 220 215 211 212 207 207 208 218 221 218 212 204 205 210 216 216 204
268 262 257 266 273 276 275 276 276 277 278 276 274 272 272 278 280 276 272 273 273 267 269 275 277 279 280 282 204 124 128 182 199 217 201 201 200 206 214 218 224 226 225 216 202 203 218 223 224 223 222 223 222 217 217 219 218 218 218 216 218 218 208 220 228 215 214 218 214 210 203 205 202 203 205 213 217 214 207 202 204 211 216 204 205
278 279 273 273 279 270 272 277 280 278 275 277 278 279 278 278 277 279 280 276 267 263 261 262 264 265 267 285 244 174 212 217 216 219 221 210 211 214 221 225 226 229 228 222 215 213 216 223 221 219 220 221 218 216 213 216 216 215 214 219 221 218 212 214 225 219 214 208 207 200 197 197 199 201 203 207 210 210 210 205 205 215 220 214 209
282 281 283 283 279 281 276 273 273 273 278 281 284 283 281 280 277 278 279 276 274 269 261 256 257 248 244 236 246 223 243 250 240 215 215 212 212 214 217 224 229 233 234 232 222 217 218 220 219 220 223 220 214 210 211 212 218 220 222 219 222 226 223 224 219 216 211 198 194 199 197 195 191 190 203 210 206 202 199 195 202 213 217 215 209
283 284 284 284 282 283 283 286 283 286 287 286 282 280 282 281 283 282 278 276 274 272 268 263 258 259 235 211 226 222 227 251 261 258 233 221 220 221 219 222 228 234 240 243 243 236 231 225 222 219 221 223 227 223 221 225 227 232 229 229 231 228 227 226 219 203 203 193 190 193 195 192 184 193 199 196 189 187 181 196 205 206 210 210 201
281 283 284 284 285 284 288 289 290 289 286 282 281 282 282 283 284 283 277 274 273 271 265 262 257 251 246 38 347 310 261 270 275 274 303 324 336 339 339 329 331 339 332 334 342 330 283 248 234 215 220 234 233 230 220 220 223 232 235 225 214 214 218 216 207 201 194 181 185 177 178 183 187 199 197 183 183 185 193 193 191 194 205 206 200
281 282 280 280 280 283 283 286 287 286 284 284 286 287 289 289 287 280 280 282 287 305 313 324 8 55 60 33 50 57 46 40 36 30 24 18 16 14 11 6 4 1 360 358 356 349 345 340 8 31 20 8 5 2 344 320 295 251 231 229 230 212 190 177 173 168 164 165 162 166 173 179 185 194 182 176 179 179 174 167 179 182 185 194 190
277 274 274 275 277 278 281 282 283 284 287 290 287 289 294 299 295 297 302 302 316 337 3 17 36 72 77 74 74 75 70 65 57 50 43 36 29 26 22 22 20 18 18 14 360 2 13 19 40 62 52 35 35 38 316 303 333 11 342 322 269 218 194 168 161 159 159 165 168 168 164 167 175 173 162 157 149 151 147 149 147 125 99 84 85
270 272 271 272 276 276 281 284 285 286 288 288 291 296 303 306 313 321 322 333 352 9 23 32 42 54 68 76 79 78 76 73 65 61 57 51 46 40 37 38 37 36 32 26 19 16 6 3 35 50 66 63 42 40 38 36 46 45 45 44 55 95 117 119 160 169 169 164 165 166 163 161 158 158 153 142 137 129 124 115 110 103 101 99 101
268 265 266 267 268 274 278 283 287 289 287 287 295 306 313 317 336 354 6 20 26 30 35 42 46 49 56 62 66 69 69 67 66 63 61 59 56 53 48 45 45 44 41 36 31 29 27 21 22 35 44 55 71 68 64 56 43 65 81 86 100 103 102 98 103 115 120 121 123 123 125 135 139 138 137 131 124 118 110 106 105 102 99 100 105
265 266 264 267 267 272 273 279 282 284 284 293 320 321 341 4 13 19 26 29 39 44 51 54 58 62 65 65 67 71 72 71 69 69 66 64 61 60 58 56 54 52 48 40 35 32 33 27 16 11 18 30 34 33 27 38 45 48 42 45 48 56 91 103 109 95 97 96 96 95 97 99 90 74 67 79 84 101 107 107 103 96 94 94 88
265 268 268 269 272 274 283 282 283 279 292 311 338 12 34 41 42 40 41 44 45 52 60 64 68 69 70 69 70 71 72 73 69 66 64 65 64 62 61 62 59 56 54 49 38 35 31 29 27 21 9 8 14 29 37 46 52 48 45 40 51 59 61 60 70 73 97 105 107 110 108 106 103 99 97 89 85 76 74 79 79 87 86 84 83
273 274 273 278 282 305 317 301 285 291 328 43 59 64 59 59 59 60 58 61 63 61 63 67 70 69 69 70 71 72 73 74 72 70 68 66 63 63 64 64 64 63 61 56 50 41 40 39 34 30 25 14 9 18 34 48 51 47 43 61 64 62 62 62 61 69 79 72 82 96 104 105 104 99 90 90 96 92 88 85 84 85 85 82 78
271 282 296 305 318 349 29 39 43 102 138 112 89 83 78 75 75 75 74 70 71 68 65 68 74 75 74 74 75 75 75 74 73 72 70 68 67 68 69 69 67 65 63 58 51 46 45 44 42 36 34 35 25 12 12 22 29 46 67 66 64 62 56 53 58 57 70 82 83 84 87 92 93 91 91 89 87 85 89 85 79 78 79 83 85